Flag for Turkmenistan Weather past 2 weeks in Ashgabat, Turkmenistan

Now
77 °F

Partly sunny.


Feels Like: 79 °F
Forecast: 63 / 72 °F
Wind: 3 mph from East

Location: Ashgabat

Current Time: May 7, 2015 at 12:43:51 PM

Latest Report: May 7, 2015 at 12:00 PM


Visibility: N/A

Pressure: 29.80 "Hg

Humidity: 51%

Dew point: 57 °F

Location of AshgabatLocation

Historic Weather in Ashgabat — Graph

°F

Ashgabat temperature yesterday

Maximum temperature yesterday: 86 °F (at 2:00 PM)
Minimum temperature yesterday: 66 °F (at 7:00 PM)
Average temperature yesterday: 74 °F

Past Weeks' High & Low Weather Summary

 TemperatureHumidityPressure
High100 °F (Apr 22, 1:30 PM)88% (May 6, 7:00 PM)30.27 "Hg (May 6, 7:00 PM)
Low54 °F (Apr 27, 4:00 AM)6% (Apr 22, 1:30 PM)29.59 "Hg (Apr 22, 4:00 PM)
Average73 °F38%29.89 "Hg
* Reported Apr 22 11:00 AM — May 7 11:00 AM, Ashgabat, Weather by CustomWeather, © 2015

Note: Actual official high and low records may vary slightly from our data, if they occured in-between our weather recording intervals... More about our weather records

Advertising

Ashgabat weather history for previous 24 hours

 ConditionsComfort  
Time TempWeatherWind HumidityBarometerVisibility
11:00 AM
Thu, May 7
75 °FPartly sunny.6 mph54%29.83 "HgN/A
10:00 AM75 °FScattered clouds.3 mph50%29.83 "HgN/A
9:00 AM73 °FPassing clouds.3 mph53%29.83 "HgN/A
8:00 AM70 °FScattered clouds.3 mph60%29.83 "HgN/A
7:30 AM68 °FBroken clouds.3 mph69%29.83 "HgN/A
7:00 AM66 °FPartly cloudy.1 mph78%29.86 "HgN/A
6:30 AM66 °FPassing clouds.3 mph68%29.86 "HgN/A
6:00 AM66 °FPassing clouds.1 mph68%29.86 "HgN/A
5:00 AM63 °FPassing clouds.6 mph77%29.86 "HgN/A
4:00 AM64 °FPassing clouds.6 mph73%29.83 "HgN/A
3:00 AM66 °FPassing clouds.3 mph73%29.83 "HgN/A
2:00 AM68 °FPassing clouds.1 mph64%29.83 "HgN/A
1:00 AM68 °FPartly cloudy.3 mph69%29.86 "HgN/A
12:00 AM68 °FMostly cloudy.6 mph69%29.86 "HgN/A
11:00 PM
Wed, May 6
68 °FMostly cloudy.No wind83%29.89 "Hg4 mi
10:00 PM68 °FPartly cloudy.No wind83%29.89 "HgN/A
9:00 PM68 °FMostly cloudy.1 mph73%29.86 "Hg6 mi
8:00 PM68 °FThunderstorms. Cloudy.8 mph78%29.86 "HgN/A
7:30 PM68 °FThunderstorms. Cloudy.13 mph78%29.89 "HgN/A
7:00 PM66 °FThunderstorms. Cloudy.13 mph88%29.86 "HgN/A
6:00 PM73 °FSprinkles. Cloudy.8 mph65%29.83 "HgN/A
5:30 PM75 °FThunderstorms. Cloudy.6 mph61%29.83 "HgN/A
5:00 PM79 °FThunderstorms. Mostly cloudy.10 mph48%29.83 "HgN/A
4:30 PM82 °FThunderstorms. Mostly cloudy.10 mph28%29.80 "HgN/A
4:00 PM82 °FMostly cloudy.8 mph28%29.80 "HgN/A
3:00 PM84 °FPartly sunny.8 mph27%29.83 "HgN/A
2:00 PM86 °FPartly sunny.6 mph25%29.83 "HgN/A
1:00 PM84 °FBroken clouds.8 mph29%29.86 "HgN/A
12:00 PM81 °FScattered clouds.6 mph32%29.86 "HgN/A
Weather by CustomWeather, © 2015

See weather overviewHow to use our weather pages